SHIJIAN-21 (SJ-21)

Last updated on Fri Dec 19 2025 00:02:53 GMT+0000 (Coordinated Universal Time)

1 49330U 21094A 25352.78358784 -.00000332 00000+0 00000+0 0 9999 2 49330 4.7166 62.3684 0052805 170.4159 262.9282 1.00282814 3551
UTC large
Height (km)
Speed (km/s)
/
Latitude / Longitude
Inclination (degrees)
Orbital Period (minutes)
Azimuth
Elevation
Range (km)
Doppler Factor

Next 0 passes for location: London (51.5072 / 0.1276)

Sorry there are no passes over London.